GFSNW_prec_cthk_168.txt.gz
RH
24 27 32 40 43 37 31 26 26 25 33 37 34 35 37 38 40 43 43 44 43 44 45 49 49 48 49 49 51 51 51 51 61 52 51 54 52 46 39 44 31 37 35 34
27 29 32 38 46 40 43 35 24 24 29 40 34 31 31 34 37 40 42 43 40 40 43 46 44 46 44 45 46 48 46 47 55 46 45 43 41 40 35 35 37 34 33 27
31 32 33 37 41 43 42 47 40 28 25 26 32 32 29 29 31 35 36 39 39 40 40 41 42 41 38 39 41 44 46 45 42 41 38 37 36 34 31 30 35 31 28 24
34 37 35 34 36 43 41 45 44 31 28 24 23 28 30 30 28 28 32 34 35 36 37 38 40 38 35 33 32 33 35 34 38 39 35 34 31 29 26 25 26 26 24 24
35 37 37 33 34 38 43 42 46 45 32 26 25 27 27 31 33 34 30 26 26 28 30 33 34 36 36 34 32 31 33 33 30 27 26 27 25 26 25 25 27 27 25 23
36 37 39 36 35 35 41 43 40 46 46 34 30 28 27 27 27 33 34 37 40 39 35 34 33 32 31 31 31 30 29 32 34 26 27 25 25 23 26 26 24 23 23 19
37 37 41 43 39 39 38 44 43 44 50 45 35 31 29 30 30 31 30 29 29 31 33 36 40 40 37 34 34 31 28 32 38 41 33 31 27 21 22 21 25 28 29 30
39 38 41 45 45 44 42 41 47 46 48 50 46 37 35 33 32 34 34 33 33 30 29 28 31 35 35 40 41 38 40 41 42 47 38 37 32 29 30 29 29 28 27 28
40 40 40 48 49 49 47 44 40 48 48 50 52 53 45 43 39 38 39 37 37 37 39 39 36 39 33 34 32 34 36 36 36 39 31 28 30 28 26 26 28 27 27 28
41 42 44 47 52 51 48 46 44 40 47 52 49 53 55 50 47 43 42 41 41 41 44 45 45 44 38 36 37 38 40 41 38 42 37 31 30 29 29 28 26 27 28 29
40 44 48 51 53 52 52 50 50 47 43 45 53 50 51 54 54 54 53 47 48 48 45 46 47 44 42 40 36 38 38 40 41 43 41 30 30 30 30 29 29 29 31 32
42 47 52 50 54 54 56 53 52 50 47 45 45 52 51 53 57 58 57 53 51 50 52 51 49 46 46 43 39 40 41 39 39 39 36 33 32 31 32 33 32 33 34 33
51 52 50 49 56 59 58 56 55 53 50 50 51 55 60 59 58 58 58 58 57 55 54 55 53 52 51 47 46 41 38 38 41 38 35 37 36 35 36 36 36 35 35 35
61 58 60 59 62 60 57 58 57 56 57 55 57 60 61 65 63 65 64 64 62 61 60 59 59 58 52 51 47 46 43 44 44 43 40 38 37 38 37 37 37 37 37 37
80 73 70 71 69 68 64 62 61 61 65 67 65 66 69 71 71 70 70 68 66 64 63 64 64 62 60 58 56 53 49 48 48 44 40 40 39 40 39 39 39 39 39 39
89 88 85 84 83 82 81 76 74 73 72 72 74 73 74 77 77 76 73 71 69 69 70 71 70 69 66 66 63 55 53 50 49 46 45 43 43 43 42 43 42 42 42 41
76 83 89 89 90 89 86 84 82 80 80 81 81 77 76 80 80 79 78 77 75 74 74 74 75 74 72 71 71 59 57 55 53 51 50 47 47 47 46 45 44 44 44 42
82 80 85 96 99 97 93 92 90 91 91 89 88 83 81 82 83 84 85 83 82 80 81 83 84 82 81 77 69 63 58 57 54 53 52 51 49 48 47 47 47 46 46 44
84 85 83 85 88 96 98 99 98 97 96 95 90 87 86 85 88 87 87 87 87 85 84 85 85 83 81 74 71 63 59 55 52 51 49 49 49 49 50 50 49 49 49 46
80 81 84 91 93 92 95 98 98 98 96 91 89 90 91 89 92 92 91 92 93 93 88 88 86 80 73 71 67 65 60 54 53 53 52 52 51 51 50 52 51 51 50 49
76 81 87 92 93 96 96 98 98 97 94 90 88 88 91 92 95 95 97 97 96 93 87 88 83 78 71 70 65 60 56 53 50 49 49 50 51 51 52 53 52 52 53 54
63 68 79 85 95 93 96 96 98 96 96 94 94 95 94 96 96 97 98 98 97 93 88 88 83 72 68 65 61 56 51 48 46 48 52 53 53 54 56 55 56 57 60 63
61 61 68 79 90 96 97 96 96 98 98 98 98 97 98 98 98 98 98 97 96 93 92 87 76 70 65 58 55 51 50 52 54 54 56 57 57 58 59 60 62 64 65 66
56 62 69 66 73 80 88 89 89 93 98 98 98 98 95 98 97 98 98 98 96 92 87 78 71 63 59 54 51 50 48 50 56 56 55 57 58 58 58 61 63 62 62 66
51 55 56 65 67 74 84 84 82 84 81 86 91 88 86 87 91 94 93 93 90 83 79 73 67 63 59 56 59 59 57 50 48 52 56 55 57 57 54 52 54 53 54 58
41 52 59 64 61 61 73 77 79 79 78 80 84 87 88 88 93 96 94 88 81 78 74 68 67 66 60 56 60 60 56 50 50 44 40 46 52 53 57 54 47 50 56 65
37 40 48 59 63 57 51 57 61 59 58 65 75 84 88 89 84 80 81 77 75 68 66 65 65 66 68 69 71 69 69 68 62 52 47 46 49 54 53 54 53 62 72 78

GFSNW_prec_cthk_171.txt.gz
RH
22 20 25 28 32 39 36 42 36 26 28 43 41 35 35 34 38 41 44 46 46 47 47 50 53 52 52 51 56 56 57 57 73 76 83 85 75 61 58 54 43 46 38 36
23 23 26 30 32 37 41 45 43 28 28 39 39 33 32 31 34 38 39 43 44 45 46 49 48 52 48 48 49 50 50 53 60 56 61 64 60 56 47 45 44 38 33 32
24 26 28 32 33 36 45 41 53 45 31 27 30 34 33 31 29 33 35 37 36 39 40 42 42 42 44 45 44 45 46 47 45 45 42 45 48 45 41 37 41 37 33 29
29 32 31 32 34 35 39 44 46 47 39 27 24 27 29 30 32 31 29 32 34 35 36 38 40 39 35 35 39 44 46 43 46 43 39 43 43 39 34 33 32 30 29 29
33 38 36 34 35 34 35 47 43 44 46 33 27 28 27 28 30 33 34 36 32 29 29 31 33 36 36 35 32 32 33 35 37 35 36 35 31 32 30 29 30 30 28 27
38 41 41 38 34 32 35 35 45 43 47 46 35 31 29 29 28 31 31 33 36 39 39 40 38 37 35 36 35 34 33 33 35 26 33 29 25 23 26 27 26 27 24 22
43 44 44 42 36 35 36 36 41 47 45 48 45 35 31 30 31 31 32 32 31 28 28 30 36 38 37 36 35 33 30 35 40 42 34 33 28 24 24 24 23 21 20 21
47 47 46 43 41 40 39 40 39 45 51 47 47 47 38 37 33 34 34 34 34 34 35 34 34 38 39 41 38 40 40 40 41 43 35 33 27 23 26 24 27 28 30 31
48 49 48 46 46 47 46 45 43 40 47 53 49 52 53 50 46 44 39 38 37 37 40 39 37 39 35 34 33 35 37 36 35 38 31 28 34 32 28 29 29 28 27 28
49 50 49 47 48 52 51 50 47 43 40 44 54 52 54 54 54 49 48 44 43 42 45 46 45 45 39 36 37 38 41 42 38 44 36 31 30 28 28 26 27 27 27 29
49 51 49 48 48 52 52 51 48 45 44 44 42 46 53 51 54 56 55 53 53 51 50 50 51 48 45 43 38 39 38 39 40 43 37 29 29 29 28 28 28 29 30 31
49 51 50 49 50 53 53 51 51 50 50 48 46 43 42 50 52 52 56 56 56 53 55 56 55 52 50 46 40 42 42 40 40 38 35 33 32 31 31 31 32 33 33 34
48 48 48 50 52 54 51 53 56 54 52 51 48 46 44 45 47 53 56 56 58 58 58 58 57 55 54 51 50 45 41 42 41 37 35 36 36 35 35 35 36 36 36 35
47 49 49 52 52 50 51 55 58 59 56 55 51 51 48 46 51 54 58 63 62 64 63 61 61 59 56 56 54 52 48 48 46 44 41 39 38 39 39 38 38 38 38 39
55 52 51 54 55 53 54 54 57 58 57 58 55 53 53 51 54 57 61 65 67 66 66 67 65 62 62 61 61 61 57 53 51 49 45 43 43 44 44 44 43 42 41 42
73 63 60 60 60 61 63 65 66 67 70 74 69 60 53 54 60 62 65 66 71 72 70 70 67 68 66 66 65 61 56 55 53 54 53 52 51 50 49 48 47 46 47 47
85 85 76 74 74 73 72 73 71 70 72 74 75 74 70 70 66 69 70 72 74 79 77 73 72 71 69 68 68 62 59 58 60 61 60 58 56 54 52 51 50 51 51 50
86 88 90 85 84 83 81 79 83 84 84 84 85 79 73 73 74 75 74 76 81 82 81 79 78 75 74 71 66 66 68 67 64 61 59 57 56 54 53 52 52 52 53 52
86 79 82 87 92 96 93 93 93 92 95 93 88 82 82 80 80 81 83 86 90 89 86 86 85 80 77 70 67 68 68 67 63 60 59 59 57 56 55 55 56 56 55 54
92 92 93 94 98 97 96 98 99 99 96 93 91 89 88 85 86 89 90 91 93 94 89 90 87 79 75 74 71 71 69 63 60 59 59 59 58 57 56 56 56 54 54 54
94 95 95 94 98 98 98 98 98 98 96 93 92 92 93 90 91 93 96 97 97 94 88 91 82 79 74 72 68 67 66 64 61 58 56 56 56 56 54 54 55 54 54 54
87 91 93 95 99 97 98 97 97 95 96 95 95 96 95 94 94 97 97 98 96 93 90 90 84 78 74 70 69 67 64 61 59 59 59 58 56 54 54 55 54 54 55 56
77 88 94 94 95 98 97 96 96 96 95 95 95 96 97 98 98 98 98 97 95 91 92 87 83 78 75 73 72 69 64 61 57 58 59 59 60 60 60 59 58 58 58 57
72 76 89 87 95 97 96 97 97 98 98 99 99 98 98 98 98 98 98 96 94 92 88 87 86 82 77 75 71 67 63 58 57 56 57 60 63 62 63 62 61 60 58 54
60 65 72 75 79 86 92 93 94 95 98 98 98 98 98 98 98 97 97 96 93 88 87 87 84 81 74 65 61 61 61 61 58 55 54 51 48 47 46 46 46 46 51 50
47 55 64 67 70 84 88 85 81 77 82 86 92 98 97 93 92 93 92 93 91 89 86 77 76 71 67 65 65 66 64 61 62 64 62 59 58 54 50 46 43 42 46 48
34 38 55 64 67 66 70 73 75 74 73 83 87 87 88 91 94 94 87 89 86 80 78 74 67 58 55 58 58 60 60 60 62 63 63 61 60 59 56 53 49 44 49 57

GFSNW_prec_cthk_174.txt.gz
RH
9 8 20 27 33 35 33 33 45 48 35 29 43 44 36 31 35 38 41 44 48 49 48 52 56 56 51 52 56 61 62 68 92 90 87 87 81 78 72 83 62 61 51 40
7 9 16 27 35 39 35 34 42 47 50 35 35 38 36 33 31 35 38 40 42 42 45 46 49 51 47 45 49 55 58 61 79 86 82 80 82 76 65 59 60 56 43 35
7 9 16 27 35 41 40 35 40 51 54 42 30 29 36 35 33 33 33 35 36 37 38 41 41 41 47 45 43 46 51 52 54 59 54 59 68 56 60 56 53 47 37 35
8 10 17 27 37 42 43 36 35 47 53 50 32 27 27 30 32 35 35 37 35 31 33 34 39 37 34 43 47 49 50 45 45 45 47 49 46 47 47 46 40 37 31 38
11 11 19 31 40 44 44 39 35 41 46 48 44 28 27 27 28 31 32 37 37 41 40 36 32 35 37 36 34 37 40 40 40 39 42 38 39 39 39 36 34 32 34 32
16 16 25 35 42 44 44 38 33 37 48 48 51 40 29 29 29 29 31 32 34 33 32 35 41 41 37 36 38 36 34 36 40 31 37 34 28 29 32 28 31 30 29 27
21 23 30 40 49 46 44 39 34 36 43 53 48 47 36 32 30 32 33 34 34 33 31 31 35 39 43 42 40 37 32 35 40 42 32 32 28 25 26 27 28 26 25 26
28 30 35 48 54 50 45 42 36 37 41 49 50 48 47 38 37 34 35 35 36 36 38 37 37 40 39 39 37 40 41 38 41 44 37 32 30 27 27 23 25 25 25 27
34 41 46 55 58 56 48 43 41 40 41 47 51 52 51 54 49 47 44 40 40 41 42 44 39 38 36 34 35 39 40 39 36 38 31 28 32 28 27 29 31 29 30 32
41 52 48 59 62 62 56 51 49 45 44 45 49 56 55 56 58 57 52 50 48 47 48 48 47 47 44 39 39 40 41 42 38 46 36 33 33 31 31 29 31 29 29 29
49 50 56 61 65 68 64 63 62 54 51 48 47 47 52 58 57 57 58 59 56 56 53 52 53 52 48 46 42 44 41 41 42 45 36 30 31 31 28 28 29 29 29 30
59 59 60 67 66 70 69 69 65 59 53 51 49 47 46 45 53 55 55 54 56 57 58 59 58 55 56 52 45 47 46 44 44 41 37 35 33 32 32 32 31 31 32 33
64 67 60 70 67 69 68 70 68 59 54 52 51 51 49 43 42 43 47 57 58 58 61 61 60 59 57 55 56 53 50 49 47 42 38 38 38 38 37 37 37 36 36 37
72 73 65 66 72 68 68 69 67 61 57 55 53 51 51 48 46 43 45 46 51 57 62 62 64 64 59 58 57 58 58 56 53 50 46 43 41 40 40 40 41 42 42 42
89 82 65 69 67 68 67 70 66 64 60 59 56 54 52 49 47 47 46 45 49 52 59 66 66 65 65 66 64 65 62 60 57 56 53 52 50 49 48 49 50 50 49 48
84 66 63 65 64 69 70 69 63 62 62 61 59 55 50 50 49 48 49 50 52 56 58 63 65 68 68 67 66 62 63 59 57 57 56 57 57 57 56 55 53 53 53 53
72 61 64 63 64 75 72 66 58 59 62 62 61 58 55 56 60 65 62 62 65 71 68 65 65 68 72 72 71 63 60 60 59 59 60 61 60 60 59 58 56 55 54 55
78 74 67 71 78 76 72 67 61 62 66 67 66 63 61 69 69 66 67 69 69 73 73 70 70 72 75 75 71 69 67 64 62 62 62 59 58 58 56 56 56 56 57 57
92 97 92 86 78 73 71 73 70 69 71 72 68 71 76 69 70 74 78 80 80 78 77 78 78 79 80 76 76 73 70 68 67 65 61 57 57 58 58 59 59 60 60 61
90 94 92 98 99 88 84 85 83 84 80 81 82 81 81 79 81 82 84 85 87 85 82 85 84 80 80 80 78 75 73 70 69 65 60 59 59 60 60 60 61 59 59 60
96 92 91 93 94 94 92 91 91 90 85 81 83 87 88 87 84 86 89 95 95 92 89 91 85 83 80 78 75 73 72 71 68 65 62 60 59 59 60 61 60 62 62 60
97 98 97 96 98 98 98 97 97 93 91 88 87 88 93 92 91 94 96 98 97 92 89 90 82 80 77 75 73 73 71 71 70 66 62 62 62 61 60 60 60 59 58 57
95 97 97 98 97 98 97 96 96 95 90 88 90 96 99 99 99 98 98 97 96 91 92 88 83 78 75 75 74 75 74 72 68 67 64 62 60 59 57 58 59 60 62 62
91 94 98 97 97 97 97 97 97 96 97 96 97 99 98 98 98 98 97 96 93 92 89 87 86 80 76 74 77 79 80 77 71 67 64 62 58 57 58 57 55 53 52 53
81 84 93 96 97 98 98 97 97 98 98 98 98 98 98 98 98 98 97 96 94 89 89 89 83 81 80 79 78 76 68 63 61 60 58 58 57 59 62 61 61 58 54 52
59 70 81 87 94 97 91 87 85 87 96 98 98 98 98 98 97 97 97 95 91 92 89 82 82 80 79 77 71 66 64 62 63 65 64 63 62 63 66 66 62 58 58 53
39 56 73 78 82 88 85 85 82 77 82 93 94 96 97 96 96 96 95 94 90 83 80 79 79 76 74 71 68 67 63 59 57 58 58 59 60 57 55 54 52 52 49 50

GFSNW_prec_cthk_177.txt.gz
RH
26 14 8 6 13 24 31 38 42 42 43 45 53 41 32 37 33 33 37 42 44 47 47 48 54 52 48 48 54 62 66 73 93 92 84 86 89 85 81 81 78 80 77 59
35 24 10 7 12 20 30 36 43 45 46 47 54 47 28 31 37 35 38 37 40 42 43 47 45 48 47 46 52 57 60 67 84 81 82 85 87 82 82 72 67 68 63 49
42 34 19 10 15 18 29 35 42 45 47 46 48 48 30 27 32 35 36 38 38 36 35 38 44 41 47 51 50 52 52 54 58 64 57 70 79 70 75 70 64 57 53 49
43 42 33 10 19 22 27 35 38 41 45 49 46 47 45 25 24 32 35 36 39 41 40 36 36 37 37 38 44 51 51 51 48 52 50 50 53 58 62 64 61 50 44 47
33 49 42 22 20 26 27 35 36 38 39 41 46 47 48 29 25 25 30 36 34 36 39 38 39 38 38 37 39 39 44 49 47 41 43 44 47 43 46 42 42 42 41 42
24 44 52 33 22 28 28 32 38 39 38 38 44 45 46 44 27 27 28 33 35 34 32 33 36 43 44 40 40 38 37 40 43 35 38 37 33 35 35 35 37 37 38 33
18 27 53 44 20 31 30 31 40 40 38 38 43 42 46 48 36 27 32 34 36 35 37 35 36 39 44 45 47 46 40 41 45 47 36 35 31 28 30 32 32 31 30 30
22 22 49 60 23 34 38 34 41 40 38 35 40 43 47 49 47 36 32 34 36 38 39 42 40 43 40 43 40 45 43 43 44 44 37 34 32 28 29 27 26 27 26 30
27 24 36 63 30 42 45 43 44 42 40 34 39 44 49 50 52 47 43 38 39 41 44 45 43 41 41 37 38 44 44 44 41 41 35 32 33 29 29 31 32 30 29 32
29 28 34 70 42 47 54 50 47 46 43 37 43 48 51 51 55 61 60 52 50 49 52 50 50 48 47 42 42 45 46 46 40 46 37 34 34 34 32 30 34 33 33 34
31 30 53 87 49 59 60 59 55 50 46 44 48 52 49 55 57 59 63 65 61 59 56 55 54 57 52 52 47 48 46 47 46 47 39 33 33 32 29 30 30 31 32 33
31 29 64 93 65 67 80 67 65 59 55 57 61 57 53 57 59 58 63 58 58 58 60 62 63 61 63 58 52 53 52 49 47 43 40 38 37 35 34 35 35 35 35 34
28 43 98 86 77 86 83 74 72 66 70 71 73 65 59 59 57 57 51 52 57 62 61 62 64 63 62 60 60 58 56 57 57 50 45 44 43 42 41 40 40 40 38 38
67 95 87 84 78 97 88 85 76 75 81 82 77 73 66 62 54 50 48 48 46 47 49 53 60 62 60 63 63 65 62 60 58 57 52 52 51 50 49 48 46 46 47 49
74 87 80 79 83 99 85 93 85 84 90 85 78 72 63 61 59 55 49 46 44 44 46 49 51 54 60 65 65 69 65 63 60 60 59 58 57 56 55 55 55 55 55 54
75 98 88 82 98 98 81 89 87 87 95 87 77 73 67 62 59 54 51 46 43 44 49 54 53 55 58 58 57 57 63 63 60 60 61 60 58 58 58 58 58 56 56 56
79 83 97 88 81 87 95 69 67 90 89 81 77 72 66 63 60 55 50 48 48 55 60 59 58 60 63 63 60 56 62 67 66 65 65 62 60 60 59 59 56 56 55 55
96 97 94 86 82 96 93 70 68 83 86 79 76 70 62 61 58 55 53 54 59 66 68 66 67 70 69 68 62 61 63 66 68 68 65 64 64 61 56 54 54 54 55 57
98 96 95 89 92 85 73 83 83 72 72 77 72 65 61 55 53 54 56 60 66 72 73 73 74 75 73 68 68 67 68 71 71 72 70 66 63 60 58 57 57 58 60 62
97 97 96 93 80 80 73 93 99 92 79 74 69 64 61 57 57 59 63 68 76 83 79 81 81 77 74 75 75 76 75 74 74 75 72 68 64 62 61 60 58 57 58 61
99 98 98 95 91 92 94 93 89 84 79 73 69 63 60 59 61 67 69 80 87 86 82 85 81 79 78 78 76 77 77 76 75 73 72 68 65 62 61 61 61 61 61 62
98 98 98 98 98 98 98 93 85 80 78 76 68 63 62 63 64 73 84 90 90 90 86 86 81 78 78 76 75 74 73 74 75 74 72 69 65 65 63 60 60 60 60 59
98 98 98 97 97 97 96 93 89 84 80 76 73 75 77 83 86 90 90 92 95 90 91 86 80 79 78 78 78 77 76 74 74 74 71 68 65 63 61 61 62 62 62 61
97 97 97 98 97 96 93 88 87 84 83 86 88 89 89 94 95 98 98 97 93 92 89 85 86 84 80 80 80 80 79 80 80 78 72 68 67 62 61 57 56 56 57 60
93 92 97 97 96 94 94 91 87 89 93 97 98 99 98 98 98 98 97 96 94 89 88 90 86 82 81 80 80 82 82 81 77 71 66 64 61 60 60 61 61 62 62 63
79 90 97 98 96 95 92 89 92 96 98 98 98 98 98 98 98 97 97 96 92 91 90 88 88 87 86 85 84 83 80 74 68 64 62 60 61 61 60 58 57 58 57 55
57 88 94 98 95 94 90 86 80 86 93 97 98 97 97 97 97 97 97 96 93 87 87 87 85 84 82 79 76 73 70 69 68 68 66 59 57 57 57 56 54 52 51 48

GFSNW_prec_cthk_183.txt.gz
RH
25 28 40 43 43 30 11 22 25 26 30 34 34 35 32 34 38 46 39 36 37 37 42 40 34 38 43 47 47 54 63 68 70 67 77 78 79 82 86 96 81 73 76 64
23 26 30 35 50 44 22 24 32 27 32 35 32 30 31 32 36 44 44 36 33 38 39 42 39 35 38 41 45 50 52 58 62 61 73 74 77 77 82 92 80 78 76 73
25 23 26 27 49 52 44 25 31 34 34 31 30 28 28 31 34 36 47 40 35 34 35 34 35 36 37 41 43 47 52 52 57 56 53 56 64 76 79 82 90 83 78 66
37 30 27 30 39 53 53 40 26 31 36 35 33 34 31 29 29 36 44 43 36 31 33 31 31 33 36 37 40 42 48 49 49 50 47 48 51 52 61 75 77 72 61 58
54 40 36 35 37 46 54 50 39 32 28 33 30 32 28 27 30 32 36 47 39 39 30 32 32 34 34 38 44 40 40 39 36 37 33 36 38 39 45 53 61 64 57 59
42 37 39 29 29 44 60 58 52 43 28 32 28 29 27 25 28 28 31 40 41 39 34 32 36 38 37 37 40 44 46 44 43 42 37 40 43 37 42 47 46 44 43 49
29 27 35 36 38 45 60 61 61 55 43 29 32 28 28 26 29 28 29 36 42 42 38 33 35 41 42 40 43 44 44 44 47 50 40 44 37 32 37 39 40 40 44 47
35 27 22 20 22 25 46 71 72 72 55 43 29 34 30 26 29 33 32 35 42 42 44 43 33 41 49 48 42 48 45 48 50 52 41 32 35 29 32 33 33 35 36 38
42 41 33 24 21 22 27 38 56 64 65 51 41 34 33 29 30 33 33 35 42 43 46 46 37 34 41 45 49 48 51 50 50 44 44 37 37 35 34 33 30 31 32 33
35 38 37 33 26 20 26 27 32 62 63 55 49 40 34 29 28 31 34 38 43 47 47 52 47 38 44 47 44 53 55 54 54 48 44 36 36 35 37 39 39 34 34 35
40 38 38 37 32 30 25 28 25 40 58 58 55 49 41 35 31 34 37 39 41 46 51 53 52 52 49 49 47 49 51 53 52 48 46 45 36 35 36 38 37 36 35 38
38 40 41 43 44 42 42 29 31 33 59 61 60 57 44 33 37 37 38 36 36 42 50 53 57 59 55 52 51 55 57 55 55 54 50 48 44 40 39 40 40 41 42 43
40 42 43 47 49 51 53 40 31 42 41 63 63 59 50 35 38 43 43 41 38 44 51 58 60 61 61 62 61 58 57 59 60 59 58 56 53 50 47 46 47 48 47 47
44 50 54 45 39 42 51 66 41 38 42 64 64 61 59 42 42 45 46 43 45 51 55 58 64 62 67 66 65 63 62 62 62 60 59 58 58 57 58 59 59 58 57 54
64 80 61 43 42 49 59 66 67 41 46 67 57 58 55 57 50 55 52 52 51 57 63 65 70 66 65 63 58 54 54 50 50 51 55 58 60 62 63 62 61 59 57 57
86 84 79 45 56 69 77 86 82 58 55 82 91 76 75 66 60 61 62 60 61 67 68 73 71 65 59 53 43 41 44 47 47 48 51 54 58 61 63 63 61 60 59 59
93 98 89 59 98 96 84 64 58 68 67 80 98 97 81 87 81 71 72 73 74 77 84 78 66 61 54 46 41 50 55 55 56 55 54 56 58 61 63 64 65 66 65 63
98 99 83 73 87 85 84 82 83 71 85 99 99 95 95 94 86 88 87 86 88 93 87 74 63 61 56 55 44 54 57 58 59 59 58 59 61 62 64 65 67 68 65 62
98 99 92 82 83 81 84 82 94 95 98 98 99 98 98 98 91 97 96 94 97 94 80 72 66 62 56 49 47 50 57 63 62 60 62 63 64 66 66 66 64 65 64 64
97 99 97 97 97 94 97 96 97 98 98 98 94 98 98 92 87 93 97 94 93 90 80 78 72 62 53 49 52 54 59 63 64 65 67 69 70 70 71 71 70 68 67 68
98 99 98 97 98 98 99 98 98 98 98 97 97 97 91 98 98 96 92 95 92 90 85 82 75 64 60 55 55 57 59 63 66 68 71 74 76 76 76 75 72 70 69 69
98 98 98 98 99 98 98 98 98 98 98 98 97 98 98 98 95 94 93 94 92 88 81 78 68 60 60 60 60 59 61 62 62 63 65 67 70 72 72 72 73 73 73 72
98 98 98 98 98 97 97 96 96 96 95 95 94 94 94 96 95 94 92 91 87 79 77 71 62 60 58 58 60 59 56 60 63 66 66 66 66 69 71 71 72 71 71 71
97 97 96 96 95 88 84 87 85 89 95 95 91 88 87 84 83 85 85 87 82 80 73 63 62 61 61 62 63 63 65 67 70 71 70 71 73 73 73 73 71 70 66 62
97 97 96 95 93 92 89 85 84 83 83 87 89 90 88 92 94 90 85 85 81 75 72 70 70 66 66 69 69 70 71 73 71 71 72 75 76 77 74 72 70 65 64 66
97 96 97 94 92 93 94 95 94 94 97 95 91 93 94 96 95 91 90 85 79 76 78 76 73 74 75 78 79 80 79 77 76 74 73 74 75 74 69 66 66 66 65 63
97 97 98 98 97 96 96 95 97 98 99 98 95 94 94 94 95 90 87 82 82 82 80 81 83 85 86 87 85 82 81 81 80 77 75 75 74 74 71 70 68 65 63 61

GFSNW_prec_cthk_186.txt.gz
RH
34 39 36 41 47 43 41 34 25 28 28 31 34 34 30 28 26 28 33 40 42 39 38 33 36 38 41 40 42 47 53 60 65 59 68 73 76 79 84 99 97 93 94 78
53 42 44 43 41 41 45 45 36 30 30 35 33 29 29 29 27 29 33 33 39 43 40 37 35 35 37 41 42 44 50 56 64 62 71 70 76 74 79 86 96 93 91 72
60 58 43 38 40 42 50 51 42 44 36 28 32 31 28 29 28 30 34 31 37 41 45 41 34 36 37 37 42 46 43 43 45 52 45 47 50 54 61 75 93 86 89 75
74 58 54 44 43 45 61 61 50 41 46 36 36 36 32 30 32 33 31 31 35 37 46 38 38 34 39 39 40 44 48 51 46 45 42 43 47 47 50 64 69 80 73 73
53 65 53 49 44 57 67 66 58 47 40 36 34 41 35 31 31 34 28 33 32 35 41 38 38 36 38 41 43 44 45 50 47 47 41 40 47 45 50 49 56 66 64 66
31 44 55 55 50 52 66 73 70 68 59 42 39 34 33 31 29 27 28 30 32 31 36 40 42 40 34 43 46 45 50 50 51 53 41 45 43 37 39 42 43 48 57 54
24 32 48 45 40 42 50 61 70 64 63 62 51 46 38 36 35 38 31 31 33 32 34 36 38 42 39 37 49 49 50 52 55 60 50 51 35 31 36 38 45 47 49 53
39 33 34 32 26 27 34 37 64 75 68 62 63 60 55 40 36 36 33 31 32 36 36 39 40 41 48 45 47 52 52 56 57 60 56 40 39 30 32 36 40 40 46 56
49 46 42 42 37 29 33 34 35 45 56 56 60 61 63 54 43 35 30 31 29 36 40 40 40 38 40 53 49 54 55 56 61 57 51 42 39 35 35 33 38 34 36 39
50 48 45 39 36 35 40 40 33 43 42 46 58 58 59 53 45 40 41 40 36 37 42 44 41 37 39 50 53 60 62 61 66 65 60 42 37 34 35 41 43 33 33 35
47 44 43 42 40 38 40 40 42 41 44 37 49 58 57 58 51 46 43 44 38 39 44 43 38 39 41 48 49 59 57 64 65 60 57 55 41 38 37 40 38 36 37 39
41 39 37 35 35 43 42 48 49 46 47 40 39 32 35 50 56 60 51 45 44 39 40 38 37 41 43 50 54 55 56 55 58 57 59 56 53 47 43 42 43 42 43 44
36 36 36 37 37 43 49 52 56 61 53 47 39 31 39 42 53 58 57 52 45 44 40 42 42 45 44 52 52 52 57 61 60 60 61 60 58 55 53 50 49 50 52 53
33 32 31 33 38 44 57 60 63 66 65 66 43 32 27 28 59 65 60 53 55 56 50 45 45 45 46 54 59 60 66 68 67 64 63 61 61 59 58 60 62 65 65 63
20 21 27 34 41 55 72 74 74 77 78 70 61 52 34 32 33 51 60 68 58 49 64 56 50 46 50 61 68 64 66 62 61 55 52 53 58 60 61 63 65 66 64 61
19 24 33 53 63 84 98 92 82 80 78 91 88 74 56 43 48 60 65 65 56 54 58 60 52 50 58 67 73 63 57 54 49 48 48 49 50 53 57 60 63 63 63 63
22 34 67 85 99 98 96 86 63 63 84 96 96 75 72 75 69 57 69 70 64 62 62 61 57 58 67 72 72 60 50 49 49 50 51 54 56 57 58 59 62 62 64 65
34 76 97 98 94 94 95 77 73 89 99 99 96 85 75 85 85 80 63 75 76 74 71 64 65 71 79 80 68 56 48 45 50 54 56 56 56 56 58 60 62 65 66 65
80 95 98 94 91 89 98 96 96 97 97 95 86 74 71 95 97 97 93 90 90 80 84 77 80 86 90 72 63 55 52 52 54 57 55 58 59 58 59 61 62 62 64 64
95 98 98 94 91 89 98 99 99 90 84 84 86 77 81 93 99 99 98 98 95 90 90 90 91 95 86 72 63 58 56 57 53 53 52 55 62 62 63 63 64 66 66 67
98 98 99 98 98 94 86 88 84 98 98 87 76 90 94 94 94 98 97 98 98 97 87 92 97 94 82 73 67 63 56 53 52 55 58 58 61 63 66 67 69 70 69 68
98 98 99 99 98 97 97 91 90 89 87 98 91 85 91 99 98 98 99 98 98 98 97 98 95 85 77 72 70 64 60 59 58 58 59 63 63 63 65 67 69 68 68 69
98 98 98 98 98 97 95 95 94 93 90 85 84 91 98 99 98 98 98 98 97 97 97 93 87 84 80 74 68 63 64 65 65 65 61 58 58 59 62 64 66 67 68 68
98 98 97 97 97 97 92 91 95 98 98 96 96 94 98 98 99 98 97 98 96 96 94 90 85 77 71 69 67 66 65 63 63 61 61 61 61 64 66 67 68 67 68 68
98 97 97 97 97 97 97 97 98 98 98 98 98 98 97 97 97 95 94 95 89 86 84 77 75 72 70 69 69 68 65 65 64 63 65 67 69 70 71 69 70 70 69 68
98 97 97 96 96 97 97 98 98 97 98 98 97 97 95 96 93 91 89 83 82 81 79 79 76 74 73 73 73 73 71 67 65 65 66 68 70 71 72 73 71 66 66 67
97 98 97 97 97 97 97 97 98 98 97 96 93 91 92 90 88 87 85 82 81 80 76 74 75 76 76 76 77 78 78 76 74 72 72 73 76 78 76 75 73 72 70 68

GFSNW_prec_cthk_189.txt.gz
RH
40 40 37 43 40 44 60 67 49 37 33 31 32 32 27 27 26 25 27 28 34 34 38 40 41 42 36 43 43 47 49 57 59 46 49 60 63 72 75 89 90 96 97 82
51 44 45 43 49 46 56 64 56 47 41 38 36 31 29 28 29 28 27 28 35 34 39 40 41 41 37 39 44 44 48 57 65 50 56 57 65 64 66 72 84 89 97 83
55 56 49 51 46 55 63 59 60 58 46 44 42 39 31 28 26 28 27 31 33 34 37 41 40 38 43 37 42 46 48 51 51 55 48 50 52 57 61 69 82 79 89 82
41 45 49 53 57 58 77 75 73 55 64 50 48 46 41 34 39 35 30 32 35 32 35 37 35 39 45 45 41 49 51 56 53 51 50 47 49 48 50 60 64 76 65 72
31 31 41 52 54 56 64 76 74 70 65 58 54 52 49 40 38 41 36 34 28 32 34 34 34 36 39 43 46 46 57 57 54 53 46 44 45 43 42 47 50 61 63 66
26 23 28 45 51 49 53 63 77 77 76 72 64 54 52 44 38 32 36 36 36 33 32 33 36 35 38 39 44 48 54 59 58 61 50 50 41 33 37 42 49 57 64 60
26 27 29 32 44 46 45 46 65 75 73 70 74 63 60 57 48 46 40 41 38 33 34 34 35 35 35 39 39 50 54 59 61 66 56 49 40 31 34 40 42 46 53 58
30 38 45 37 38 44 45 40 44 52 59 59 61 60 65 60 57 54 56 52 42 36 34 35 33 32 32 38 43 49 58 57 65 67 69 49 40 36 35 33 36 37 52 59
37 44 51 51 48 45 52 49 47 47 46 41 40 53 58 59 53 53 51 56 52 44 36 40 39 34 31 34 42 45 57 64 66 66 66 52 39 36 36 40 41 34 37 45
51 57 53 50 46 47 51 50 48 54 53 44 35 43 55 58 59 56 49 45 51 54 52 49 45 38 32 35 42 50 60 69 74 71 72 60 41 37 36 42 42 35 35 36
61 57 50 45 42 42 50 46 45 51 50 45 49 39 33 36 48 66 60 54 54 54 55 50 43 42 34 32 33 44 54 63 70 70 70 64 51 49 42 39 40 36 38 40
54 52 49 44 40 36 43 50 40 45 51 47 48 44 37 30 33 42 66 64 60 56 53 51 46 40 36 34 34 35 45 51 54 59 61 57 57 58 52 48 48 45 44 44
42 41 41 41 40 39 38 46 49 49 50 47 44 44 45 38 32 34 57 67 67 61 58 56 51 47 40 38 36 35 39 49 49 54 61 63 61 61 57 56 51 52 55 59
43 44 40 35 33 33 34 43 48 51 59 57 40 47 48 43 40 31 42 48 51 74 68 60 59 53 43 41 40 39 41 47 52 54 62 68 66 64 61 58 59 61 62 67
38 37 37 34 32 32 34 38 45 50 65 58 52 54 46 44 41 37 29 30 29 53 76 68 63 56 55 46 43 40 42 55 63 66 68 59 53 53 55 56 56 58 62 65
32 33 33 31 28 27 43 48 35 49 62 73 62 56 60 57 55 52 50 39 43 55 70 71 64 58 61 58 46 37 41 61 67 64 59 55 50 52 55 56 57 60 62 61
23 23 23 21 17 32 52 57 59 79 94 99 98 86 69 68 74 74 65 59 51 58 76 72 67 65 62 62 53 42 50 67 72 62 56 53 53 53 56 60 60 59 60 63
20 19 13 14 32 55 71 84 94 99 99 99 98 96 84 82 80 85 86 80 73 62 62 56 66 75 64 64 50 46 53 69 72 55 52 54 53 54 57 56 56 57 61 63
19 13 27 52 85 92 92 95 87 92 99 98 87 84 87 85 86 88 90 97 95 88 89 76 74 73 63 47 51 52 63 71 73 57 53 53 52 53 57 57 60 58 57 59
21 50 93 99 99 96 96 89 90 93 98 96 93 86 83 86 91 93 92 99 98 92 88 87 87 69 54 54 54 60 69 82 74 64 59 53 53 55 57 57 59 62 59 58
63 93 97 98 98 98 96 95 97 98 98 94 95 90 91 93 92 95 94 99 98 98 89 87 88 75 59 58 60 71 78 80 74 70 64 60 60 59 62 62 62 65 67 66
84 95 97 98 98 98 97 92 85 82 82 85 90 92 89 93 92 89 98 98 98 98 90 97 88 72 66 67 72 81 86 78 74 70 67 64 63 62 62 64 66 69 68 67
88 98 98 98 96 98 95 96 88 89 89 90 90 92 84 90 95 96 97 96 98 96 98 97 88 80 75 78 91 95 89 84 80 75 72 72 69 66 64 67 67 67 66 65
98 98 97 97 96 93 94 96 97 96 97 98 94 97 98 92 94 96 98 98 98 98 96 91 86 87 88 92 96 92 88 82 79 75 73 70 69 68 68 67 68 68 68 67
98 98 97 96 97 96 95 97 97 96 98 98 99 99 99 98 98 97 98 98 97 97 97 94 93 95 97 94 91 88 85 83 79 73 72 72 69 69 66 64 68 69 68 68
98 97 97 96 97 97 97 97 98 98 98 98 98 98 98 98 98 97 96 97 97 97 97 97 97 96 95 91 87 84 84 82 81 77 76 74 75 72 68 66 67 68 70 71
97 97 98 98 96 97 97 97 98 98 98 98 98 96 97 94 94 96 97 97 97 97 96 94 91 91 89 87 85 82 79 75 71 70 70 69 69 70 71 72 72 71 70 70

GFSNW_prec_cthk_195.txt.gz
RH
36 31 30 31 28 36 39 45 51 56 58 56 50 49 47 31 26 24 27 28 26 27 26 31 32 32 33 36 40 44 52 56 67 55 50 56 61 65 73 84 84 95 93 64
35 34 31 32 31 36 42 47 51 56 59 59 54 52 55 48 38 30 29 30 28 27 31 34 34 32 31 33 39 46 48 59 61 51 50 56 65 64 66 76 84 82 92 70
30 30 31 32 34 34 45 48 48 52 60 60 56 54 54 55 44 42 34 34 37 40 34 36 35 34 33 33 35 42 48 59 58 60 53 54 56 55 58 63 74 69 73 64
31 27 25 29 31 34 33 50 50 51 59 66 63 63 61 63 61 60 51 39 40 50 43 38 38 35 35 32 35 42 46 57 63 62 59 61 61 55 52 57 54 72 60 67
31 29 28 25 28 33 35 38 51 51 59 64 70 73 72 70 73 66 52 54 52 42 42 45 45 41 39 37 34 39 42 48 53 65 57 57 61 48 48 50 48 61 64 58
32 30 29 26 27 33 37 37 36 51 56 66 69 69 74 75 74 67 62 62 60 54 48 47 44 40 38 37 36 36 41 43 50 58 62 60 59 46 39 39 42 48 59 45
35 32 34 29 30 35 40 40 41 40 43 49 63 68 72 77 78 76 69 70 70 61 58 50 44 43 38 35 30 30 36 40 51 54 58 63 51 48 40 38 41 37 44 45
39 35 33 32 40 40 40 44 47 49 51 42 37 46 56 56 60 69 72 68 68 65 62 61 57 49 40 41 44 40 35 42 49 54 60 58 54 53 47 40 40 36 35 43
35 31 34 36 42 48 48 49 51 55 56 51 42 45 43 44 38 34 40 34 46 59 62 64 66 67 47 43 45 48 48 44 49 53 57 52 51 55 51 49 46 37 37 39
38 37 44 45 48 53 58 62 61 62 61 58 54 51 52 50 49 48 39 40 43 48 52 56 62 59 50 51 43 55 57 53 48 53 60 49 50 56 57 60 53 43 38 40
47 49 55 57 58 63 62 59 62 63 61 57 57 55 53 50 52 54 43 39 55 58 65 64 58 56 50 46 37 42 46 57 56 56 61 57 45 51 60 60 64 54 46 44
58 59 61 63 63 65 64 63 60 60 62 57 56 56 51 49 42 48 47 47 46 67 68 62 62 57 56 46 45 38 41 35 43 42 40 36 40 44 51 62 64 62 54 52
49 47 46 47 50 57 59 59 59 58 55 48 44 45 33 36 35 41 55 48 42 37 49 65 71 69 58 57 50 41 37 34 38 38 30 34 39 46 48 70 76 68 58 61
44 46 46 45 46 46 48 54 58 58 57 54 41 28 30 27 32 34 37 37 42 46 47 51 52 63 68 64 56 49 42 40 38 37 33 33 39 43 47 68 76 70 66 64
36 35 36 35 36 35 43 51 53 53 51 42 35 34 36 31 31 30 34 46 52 52 56 54 55 52 64 66 67 57 45 41 42 40 37 41 45 50 55 61 64 60 59 61
27 28 29 28 27 30 40 44 38 31 37 52 50 37 36 25 24 27 33 47 64 69 68 61 56 55 58 66 61 44 45 42 41 44 42 45 45 50 56 60 61 61 59 58
32 30 27 25 25 30 39 46 30 29 40 52 50 44 48 47 43 41 57 77 81 74 68 67 65 61 69 55 46 34 48 45 42 43 43 43 47 50 62 62 64 61 59 61
31 29 26 27 24 24 28 16 29 42 48 57 58 47 39 38 43 51 68 85 95 89 88 77 70 71 78 72 31 39 43 42 40 45 42 44 46 50 65 71 67 66 61 60
32 30 27 20 14 18 19 28 36 47 49 51 38 32 38 40 61 77 90 92 95 97 93 83 95 90 91 46 36 40 36 35 29 35 37 39 45 49 60 77 69 67 63 63
29 24 21 24 29 45 45 44 81 93 96 82 61 61 63 77 92 94 98 98 97 93 78 82 90 77 56 46 39 44 46 50 45 35 36 44 48 48 59 80 70 68 66 67
28 31 26 21 29 39 51 71 95 98 97 78 73 79 83 92 97 99 98 98 98 92 80 90 79 55 42 53 52 51 51 52 48 40 42 50 54 55 62 81 73 72 69 68
37 36 34 39 58 73 86 97 98 98 97 96 93 91 90 95 99 98 97 96 96 88 89 92 73 48 58 66 65 59 59 68 57 43 45 57 55 61 65 82 78 75 69 68
26 32 47 71 91 96 98 98 97 96 96 98 98 98 98 98 99 99 97 95 92 90 90 76 63 63 73 82 80 80 78 74 64 67 66 65 70 80 87 89 82 78 75 75
35 49 72 92 98 98 97 96 96 96 96 98 98 98 98 98 98 98 98 92 92 89 86 83 84 87 87 89 92 95 88 93 90 90 84 86 81 88 90 92 87 85 83 83
47 61 90 96 94 93 95 96 97 97 97 98 97 98 98 98 98 98 98 97 92 87 86 89 96 96 97 98 98 93 95 97 97 89 83 83 95 97 96 94 91 90 87 84
52 72 86 90 91 90 91 93 96 96 96 97 98 98 98 98 98 98 96 96 91 92 96 97 97 97 97 97 97 98 98 98 98 97 94 98 98 96 94 93 90 87 84 83
86 95 98 98 96 96 96 97 97 97 97 97 98 98 97 96 97 96 94 96 97 97 97 97 97 97 97 97 97 98 98 98 98 98 98 97 95 92 89 86 85 84 83 82

GFSNW_prec_cthk_198.txt.gz
RH
37 34 33 30 30 27 33 38 40 44 48 48 53 50 44 44 38 41 40 33 28 28 29 28 28 31 31 31 35 38 41 48 61 55 50 57 65 68 71 82 74 92 96 68
36 33 31 31 33 30 33 37 45 45 47 47 50 52 50 49 48 47 52 41 39 37 31 33 35 34 32 34 35 36 39 44 51 49 53 62 71 73 68 73 76 79 96 69
34 32 29 29 34 33 32 38 41 45 49 50 49 55 55 48 45 47 47 52 46 46 41 38 44 44 38 35 35 35 39 45 45 46 54 60 63 65 63 69 77 61 70 53
37 34 30 29 29 33 31 41 44 45 47 53 52 54 59 64 58 54 54 60 63 54 51 45 45 48 45 37 37 39 41 45 43 40 50 63 65 66 57 61 59 61 57 55
40 33 36 34 29 32 35 36 46 49 47 49 55 58 64 65 64 65 62 66 75 69 65 62 58 48 47 44 38 40 41 45 42 38 36 52 58 62 56 52 54 52 57 51
46 42 36 38 32 32 39 40 41 44 48 50 54 56 56 62 70 66 72 76 78 76 70 70 64 61 53 46 45 42 43 47 49 44 35 36 53 57 60 48 48 46 47 48
52 47 41 40 38 41 41 43 46 47 45 42 46 56 61 61 63 72 74 76 79 73 72 66 63 58 54 49 41 46 51 55 56 55 39 37 30 51 56 51 43 43 40 44
52 52 45 38 39 46 47 47 49 50 53 47 40 38 38 41 48 52 52 53 59 61 59 64 64 60 53 46 46 46 47 53 57 59 59 36 26 42 55 55 50 44 39 39
53 51 41 39 46 54 56 53 54 57 59 55 51 48 46 47 46 42 35 29 27 34 46 68 71 64 56 55 52 54 53 52 55 64 62 46 25 34 51 59 61 57 46 42
49 47 46 46 50 57 64 64 65 65 64 62 61 58 53 51 52 53 46 45 40 51 53 55 55 51 43 48 47 56 58 57 57 63 65 50 30 35 45 56 59 62 58 52
58 55 54 53 59 61 66 65 70 71 68 63 58 59 59 52 52 55 46 52 47 51 67 70 64 63 56 50 43 47 51 54 56 58 65 57 40 39 41 46 53 65 68 54
60 62 62 61 61 66 72 71 70 68 68 60 58 56 57 45 43 50 55 55 52 60 75 75 74 72 65 61 59 44 50 44 50 49 43 37 41 39 38 40 54 73 73 54
52 52 51 51 52 55 58 61 61 60 62 53 49 44 38 43 38 46 57 54 44 47 45 56 68 75 75 71 62 53 42 43 46 44 34 34 35 38 39 41 48 70 73 62
47 46 47 48 49 47 50 52 55 56 52 54 43 35 35 35 37 38 41 37 40 43 48 55 55 55 50 58 67 66 58 49 47 46 41 37 35 37 41 43 46 60 69 73
42 39 37 35 35 39 42 47 43 38 43 41 39 40 32 30 30 28 28 36 38 40 46 51 51 53 55 52 50 39 45 51 54 52 48 47 43 44 48 48 57 60 62 62
33 33 33 34 33 34 41 41 30 31 38 51 50 42 35 26 22 25 25 30 39 48 50 49 50 55 57 54 49 37 40 33 33 45 51 50 46 46 50 51 58 65 62 60
33 35 33 33 31 33 41 39 35 32 34 45 44 41 51 55 45 39 36 37 40 51 60 65 70 72 70 61 48 35 36 43 43 38 41 44 41 42 47 52 56 66 65 61
36 34 33 30 25 30 32 21 27 32 40 50 53 50 35 30 32 29 30 44 55 58 70 76 81 82 81 70 35 35 34 34 32 28 27 29 36 37 41 50 55 62 69 65
38 37 31 24 20 24 25 32 42 44 53 51 42 33 38 41 50 58 66 81 96 95 84 80 90 88 81 43 35 42 46 47 46 43 40 34 31 27 39 46 49 54 72 72
38 31 25 21 28 37 35 32 37 46 51 58 45 57 61 70 80 83 92 98 97 92 81 86 84 64 46 50 48 49 50 53 54 51 45 43 35 30 34 43 47 49 68 80
34 34 28 24 26 30 38 40 52 66 61 60 62 77 81 86 88 92 97 98 98 91 79 86 74 55 47 57 61 57 60 64 62 53 47 47 46 40 43 43 44 56 63 83
41 42 33 29 39 55 65 69 76 79 79 88 93 93 92 92 94 98 96 96 96 92 87 90 74 63 63 66 68 68 70 73 68 60 52 55 53 49 47 54 53 61 63 84
31 30 35 40 59 71 79 82 94 95 96 98 97 98 98 97 98 98 99 98 90 85 89 78 69 72 76 77 79 82 81 82 80 72 62 59 62 70 63 63 65 64 72 87
34 37 40 48 64 73 84 94 97 97 97 98 98 97 98 98 99 97 98 95 93 90 88 88 89 90 89 89 88 87 93 91 86 84 80 74 65 58 62 74 78 77 84 90
35 41 46 46 61 75 87 91 90 91 95 97 97 98 98 98 98 98 96 97 94 95 96 97 97 97 97 96 93 96 94 94 94 86 77 73 71 74 86 95 99 96 92 93
40 42 42 52 65 75 82 86 89 93 96 96 97 97 98 97 98 98 97 96 93 95 97 97 97 97 97 97 91 87 89 96 98 95 98 98 98 98 98 99 98 98 98 98
46 48 67 85 90 93 92 94 96 98 97 97 98 97 98 98 95 92 94 96 97 98 97 97 97 98 97 92 94 96 97 97 95 97 97 96 98 98 98 98 98 97 98 96

GFSNW_prec_cthk_201.txt.gz
RH
43 39 39 37 33 29 32 33 36 42 46 43 45 42 39 42 42 40 39 39 40 46 45 36 31 27 31 33 33 38 37 42 45 34 34 42 57 72 79 85 75 84 87 63
40 40 38 35 33 33 31 37 41 42 45 47 47 45 46 46 46 45 46 44 43 47 48 47 43 42 40 40 42 40 40 40 46 34 36 39 52 73 78 80 78 75 82 57
42 39 37 34 32 34 32 41 44 44 48 45 49 47 45 47 45 45 45 43 43 45 52 60 56 47 47 47 48 47 46 43 40 41 35 35 37 54 69 80 78 67 61 44
40 39 36 35 32 34 36 43 48 50 48 50 51 48 48 51 55 50 54 57 56 55 53 59 63 60 53 46 46 51 53 49 46 39 38 38 36 46 61 79 66 67 48 50
44 46 41 37 35 35 41 41 52 53 53 52 53 53 56 54 57 57 57 60 65 66 69 69 77 75 66 61 53 54 54 55 51 43 40 43 36 41 48 69 66 61 52 52
49 50 49 42 41 39 45 48 48 48 45 53 55 59 59 62 62 60 63 65 67 71 72 71 69 70 71 68 66 63 62 58 59 56 49 42 40 32 41 55 61 58 53 42
55 55 52 48 46 43 45 47 51 53 50 46 46 53 54 56 60 62 59 58 62 60 64 64 64 63 62 61 58 62 62 65 64 64 54 48 36 35 34 40 57 59 50 43
58 56 53 51 44 47 52 54 55 57 59 53 43 43 44 43 42 46 44 44 44 46 47 43 45 47 50 53 56 59 61 66 69 72 65 44 33 38 32 36 57 65 55 47
55 55 51 46 42 57 58 61 60 62 63 58 56 55 52 54 52 47 42 42 39 43 47 49 54 52 45 41 53 60 61 64 69 74 69 53 31 37 36 37 47 54 66 57
58 53 52 51 49 62 65 65 68 68 70 61 67 68 63 57 55 56 50 48 47 53 60 60 56 58 50 50 47 51 55 61 63 66 73 51 32 36 45 46 46 47 62 69
63 62 61 60 58 62 65 66 66 67 66 65 67 68 68 63 54 53 51 55 50 53 60 68 66 68 65 64 54 53 53 57 59 61 68 57 38 40 43 46 46 49 60 65
63 64 64 64 65 66 65 66 68 69 70 65 60 57 56 57 56 62 60 53 48 54 71 74 72 72 73 73 73 57 63 53 58 54 45 39 45 46 46 46 48 47 59 60
62 60 57 54 53 55 58 61 58 55 53 46 44 42 43 41 43 53 63 60 50 51 50 55 56 64 64 71 73 67 59 56 58 54 44 43 45 48 48 47 47 45 54 61
54 53 52 50 47 45 47 45 44 44 46 49 39 37 37 36 34 33 37 40 47 44 46 54 58 57 50 49 42 49 52 60 62 57 50 40 41 45 45 46 44 44 46 53
54 47 39 35 35 38 40 37 27 27 36 38 39 38 33 30 25 25 27 33 39 48 53 54 53 51 51 47 45 40 38 30 34 41 49 52 47 47 46 48 49 47 51 59
42 37 35 35 36 37 43 35 31 29 35 46 51 45 25 30 37 30 29 31 40 49 54 56 54 49 50 53 46 31 31 30 28 25 23 23 23 39 52 52 52 53 54 69
38 39 36 32 36 38 44 33 34 36 38 44 45 37 33 43 39 32 32 36 41 46 53 52 48 45 53 58 51 43 34 36 42 41 36 34 31 27 27 51 55 55 55 63
35 35 35 31 29 32 32 26 29 38 48 55 56 45 29 18 26 40 54 59 53 50 52 51 57 57 60 63 39 32 42 49 51 47 44 40 37 34 38 39 46 51 52 61
38 35 31 27 26 27 27 32 35 41 50 55 48 39 33 33 50 63 73 79 83 78 77 74 83 74 66 51 49 54 52 52 50 55 54 52 48 41 36 32 35 46 47 55
41 36 30 26 27 29 26 22 29 41 47 54 45 44 49 56 73 88 91 91 92 88 76 83 82 66 57 57 59 61 63 61 63 63 57 54 53 50 43 41 36 35 37 49
39 34 28 27 30 33 35 35 39 46 57 64 68 74 79 92 94 95 94 95 96 89 77 83 73 65 63 66 66 68 66 66 63 66 60 60 57 53 49 44 44 40 42 54
37 39 34 34 39 49 56 61 63 73 80 82 84 90 96 98 98 98 95 93 90 91 87 89 80 80 82 82 81 77 74 72 69 71 64 69 65 58 54 52 52 47 48 55
36 35 37 36 44 57 63 67 76 82 88 90 92 97 97 97 98 97 98 97 93 92 96 93 92 92 92 90 88 88 87 86 80 80 80 80 76 61 57 57 56 53 54 63
33 35 36 39 48 57 61 71 80 85 89 93 94 96 98 98 98 96 98 93 97 97 97 97 96 97 96 94 94 88 82 82 82 82 77 79 84 71 64 64 64 66 63 67
34 36 37 35 38 46 57 62 66 73 81 89 92 94 98 97 98 98 97 95 97 97 97 97 97 97 96 96 97 97 97 96 96 97 95 94 93 87 79 78 74 78 76 70
34 35 35 34 36 36 53 65 76 84 89 90 94 97 98 96 98 98 98 97 97 97 97 97 97 97 97 97 92 88 90 95 93 93 95 95 95 92 87 89 83 91 87 92
39 37 36 42 53 78 86 92 95 98 97 98 98 97 98 97 97 97 97 97 98 97 97 97 97 97 95 96 96 94 93 97 97 97 97 98 93 87 84 95 97 98 98 97

GFSNW_prec_cthk_204.txt.gz
RH
36 37 40 39 36 35 34 34 37 44 44 43 44 41 40 41 38 40 39 39 38 36 37 36 36 38 43 40 38 35 43 46 40 30 32 34 35 37 46 55 82 84 76 54
37 39 38 36 37 36 34 39 42 44 45 43 45 45 46 45 43 42 45 47 45 44 42 39 40 43 48 54 51 46 43 46 50 37 39 39 40 41 46 49 74 84 76 46
40 39 35 37 36 38 37 42 45 47 49 47 47 48 45 46 45 45 45 45 46 46 46 44 45 44 49 53 55 54 48 46 52 48 34 34 36 38 44 53 66 72 63 44
44 43 42 40 36 37 41 46 52 52 53 55 56 53 50 48 50 50 51 53 55 56 55 54 54 54 53 54 58 60 53 51 50 49 48 42 43 40 44 51 54 65 56 48
47 49 50 43 39 38 43 47 50 52 52 51 57 56 55 54 56 59 58 60 63 62 61 62 66 66 66 66 65 67 64 64 62 56 46 44 45 42 41 47 51 49 61 53
50 53 53 46 42 41 44 47 49 50 48 52 56 58 59 61 61 62 63 65 65 62 62 64 65 64 63 63 66 70 71 70 69 62 58 50 37 35 40 50 46 45 62 48
55 58 56 51 48 43 46 48 51 52 49 50 47 53 54 53 55 56 53 55 55 52 54 52 51 52 52 49 48 58 62 73 76 74 61 57 36 37 41 46 47 49 55 55
67 60 56 52 52 47 49 54 56 57 58 55 52 50 49 48 46 47 45 43 44 46 46 43 36 35 37 35 37 39 44 57 72 76 66 50 39 37 37 40 48 49 45 57
66 62 56 53 50 50 56 59 63 65 69 64 63 59 57 55 54 52 48 48 46 49 51 52 46 38 41 37 50 52 52 55 58 70 69 52 40 44 40 37 45 50 50 55
60 57 56 57 55 55 65 67 69 72 72 69 70 65 61 58 59 57 54 53 49 53 61 58 52 52 50 46 49 56 59 63 62 57 59 41 35 41 37 38 48 54 54 52
61 66 68 67 64 65 70 70 72 72 70 65 62 64 64 60 60 58 55 53 52 53 57 60 61 62 60 61 52 58 58 61 64 67 67 54 38 41 40 45 51 51 56 52
71 70 65 63 65 65 66 67 67 69 70 62 57 54 52 51 54 55 57 54 51 56 65 73 67 62 58 64 68 59 62 55 61 58 54 51 52 50 50 52 52 51 56 59
62 61 58 58 56 56 53 50 52 51 50 44 44 44 41 36 38 42 47 46 52 50 55 61 58 64 59 58 59 70 63 58 60 59 51 57 58 58 58 56 54 53 52 55
68 68 59 54 52 49 43 40 41 43 46 50 36 34 31 27 30 33 36 39 50 48 56 63 63 59 51 49 46 43 40 50 53 50 48 47 53 58 58 57 56 56 55 50
64 61 53 46 42 41 37 36 33 36 39 41 38 33 24 25 27 29 30 33 40 48 54 56 57 59 60 55 52 50 43 35 32 24 19 21 24 38 56 55 54 54 53 53
56 49 43 43 39 40 40 36 34 31 32 44 46 35 20 30 39 42 31 31 38 46 51 51 50 42 49 51 42 38 36 28 28 29 26 26 27 25 26 30 35 49 51 53
49 44 39 37 38 39 39 33 32 35 37 42 44 31 24 30 30 27 31 42 49 53 54 49 46 44 55 54 45 28 33 33 33 39 44 44 43 40 36 35 33 38 54 55
43 38 34 34 33 33 32 29 35 45 52 56 49 38 27 22 28 31 41 55 65 67 66 62 63 61 64 58 46 45 47 56 57 59 60 55 48 50 44 39 38 40 42 52
35 34 32 31 29 28 29 38 36 36 42 50 47 44 35 35 43 55 68 75 76 70 71 73 74 72 70 53 58 60 64 65 65 66 65 60 59 50 46 41 40 38 36 46
36 34 32 31 29 31 32 30 35 43 51 50 44 57 60 61 73 79 80 86 86 78 74 82 80 69 70 69 71 72 72 73 70 70 66 70 59 58 54 49 43 40 39 39
39 36 33 32 36 35 33 34 35 41 49 58 68 72 72 78 84 90 93 92 88 86 80 88 84 84 87 90 89 89 86 81 75 72 67 68 63 59 60 55 51 47 42 37
40 35 34 36 39 42 47 52 54 59 71 76 74 74 77 85 95 98 94 92 85 85 88 95 89 90 89 88 87 87 87 84 82 81 75 73 69 63 61 62 58 51 49 46
37 33 32 33 38 48 54 60 67 74 76 78 73 75 81 96 98 95 94 91 86 84 94 90 93 95 94 93 91 88 87 85 83 77 72 70 70 72 73 74 70 57 53 53
32 30 33 34 40 46 53 58 65 69 70 66 66 73 84 90 97 94 94 89 94 96 97 97 97 95 94 93 96 96 95 96 96 89 81 79 76 76 76 80 77 64 57 58
29 30 34 33 33 44 48 50 48 47 50 60 68 72 84 89 95 98 96 97 97 96 96 97 97 95 94 94 92 88 92 93 95 98 96 93 90 86 81 83 77 69 71 71
30 31 34 34 37 34 36 45 64 71 74 76 79 85 91 91 97 98 97 97 96 96 97 97 97 97 96 97 97 93 95 97 97 96 97 97 97 98 98 96 89 86 84 85
33 33 31 34 36 42 52 70 79 84 88 92 97 95 94 97 97 97 97 97 97 97 98 97 97 97 97 97 98 96 94 95 96 95 97 98 98 98 98 98 95 90 94 96

GFSNW_prec_cthk_207.txt.gz
RH
38 36 32 32 34 33 34 40 43 42 40 43 42 43 43 42 40 41 38 37 38 38 39 38 35 35 38 38 41 46 51 52 48 32 35 37 44 43 36 45 53 62 73 64
39 37 34 34 37 34 35 42 45 44 41 46 48 49 46 45 43 43 44 44 44 43 42 43 39 40 41 42 43 48 52 51 55 44 44 46 51 40 38 46 51 62 66 57
42 38 35 37 37 36 40 48 49 50 50 50 48 50 47 48 48 47 48 46 45 44 46 45 44 47 47 46 50 52 55 54 59 52 39 42 48 42 41 45 54 55 54 46
43 42 42 41 38 38 43 49 51 50 56 58 57 57 52 50 49 52 53 54 55 57 56 51 51 51 53 53 55 58 60 59 58 58 54 52 49 48 47 48 47 55 47 45
44 45 46 41 38 41 50 56 52 54 52 51 54 57 53 54 55 55 58 61 62 62 64 62 63 68 59 58 58 61 64 64 66 65 60 58 56 50 42 41 43 49 51 47
52 51 48 46 45 46 52 47 47 48 50 55 55 58 59 63 62 62 62 62 58 56 58 59 60 61 60 58 55 59 65 67 72 70 63 61 51 43 45 43 43 47 54 48
57 54 52 51 51 48 48 48 50 52 50 50 51 55 57 58 58 57 52 50 50 50 50 45 41 39 39 44 43 46 52 57 68 70 65 65 44 46 46 47 44 46 50 52
54 52 58 54 54 53 50 51 53 52 55 55 54 54 54 52 54 55 53 48 49 48 46 46 41 32 36 39 41 41 43 50 60 63 56 42 42 44 45 46 46 48 48 54
52 60 62 56 58 55 57 58 62 62 63 62 61 62 61 59 59 56 55 51 50 49 51 50 47 38 35 38 53 49 51 51 51 58 72 57 40 44 47 46 49 47 47 58
57 60 57 56 58 52 59 65 66 72 74 70 68 65 65 61 61 60 56 55 49 49 47 50 51 47 46 49 44 62 61 64 66 68 70 55 43 42 40 42 56 52 50 59
57 55 63 70 67 63 65 67 69 74 76 74 69 68 65 63 61 58 60 58 54 53 53 50 48 50 51 59 52 56 62 63 66 75 84 75 49 51 47 48 49 50 50 59
67 72 71 70 65 63 61 64 68 69 68 63 56 53 53 55 55 56 56 53 48 50 57 63 58 57 60 57 59 62 64 59 65 61 61 60 60 60 65 62 58 55 56 58
78 74 67 65 58 53 53 56 53 54 57 50 50 44 41 37 37 39 48 49 50 52 58 58 56 58 56 60 51 52 59 68 65 66 60 65 66 66 68 71 66 63 61 61
74 72 66 64 57 53 50 47 45 48 52 54 40 33 29 30 30 32 37 45 43 46 51 58 59 57 55 52 48 45 44 46 54 49 48 44 51 63 69 73 72 67 66 62
69 66 64 58 52 48 45 45 44 41 43 45 39 29 27 26 29 27 27 30 35 39 44 49 51 46 48 47 46 46 33 32 38 32 27 27 24 25 32 44 49 52 53 57
70 68 59 50 47 46 45 46 41 37 40 44 42 30 26 28 41 38 42 39 38 40 45 46 44 42 51 52 42 27 31 42 47 44 39 34 30 34 30 32 36 40 48 47
65 57 50 50 46 47 48 45 39 35 37 46 44 35 33 33 32 28 28 33 42 49 54 56 57 58 63 61 54 38 46 49 52 53 52 41 38 38 41 44 42 39 38 41
58 53 49 45 44 42 41 40 41 44 44 50 49 38 32 26 35 40 38 43 53 63 68 64 65 67 72 66 58 58 60 59 59 64 71 58 49 50 49 45 46 43 39 35
52 45 41 40 37 40 38 38 36 39 46 51 50 44 43 44 51 58 61 66 72 70 72 75 72 75 79 69 72 77 78 76 73 71 75 77 66 58 57 53 49 49 45 41
43 42 39 40 36 34 30 33 39 44 50 52 50 59 62 58 64 67 70 77 79 76 72 78 76 71 79 85 86 86 87 87 86 82 79 79 73 68 63 60 55 51 49 46
42 39 38 36 34 31 35 39 41 44 52 56 64 66 64 65 70 74 79 81 82 82 80 84 80 87 88 89 89 89 87 86 85 82 79 79 77 72 64 64 62 59 55 52
41 36 35 34 37 43 44 48 48 49 62 68 67 62 58 64 77 82 85 88 86 81 86 91 88 89 90 90 89 89 90 89 89 88 82 76 71 70 68 67 68 63 62 59
36 35 36 37 41 50 55 63 65 67 66 69 68 64 60 68 83 85 92 90 82 79 89 90 93 92 92 91 89 88 90 90 91 93 95 95 85 72 68 70 69 68 70 68
34 34 36 37 43 45 52 57 61 62 63 61 55 53 58 64 76 88 92 84 86 92 96 96 96 95 93 91 91 91 89 90 93 94 92 89 90 85 79 74 75 78 83 78
34 36 35 35 36 47 51 47 44 38 36 45 56 60 63 64 71 89 92 95 96 95 96 96 96 95 93 94 94 95 92 93 95 97 97 97 96 95 91 88 86 84 88 81
32 34 34 35 35 36 35 34 39 44 58 68 72 75 76 74 82 92 94 96 97 96 97 97 97 97 96 96 97 97 97 95 97 95 97 98 98 98 98 98 96 91 90 83
36 36 35 33 31 31 37 44 50 57 70 78 85 86 85 93 93 92 94 97 97 97 98 97 97 97 96 97 97 97 97 97 96 97 97 97 98 98 98 98 98 98 95 95